User: anonymous   Login
Location: Hancock Field Station
(44.9202°N, 120.4259°W)
Time: 19:34:17
(UTC-07:00)
Language:

Cosmos 1707 - Orbit

View from above orbital plane
View from above orbital plane
View from above satellite
View from above satellite

Ground track
Ground track

The orbit data is extracted from the following two-line orbital elements,

1 16326U 85113A   16181.53056807  .00000632  00000-0  34268-4 0  9995
2 16326  82.5102 194.6115 0012834  81.2216 279.0467 15.12680373664022
Epoch (UTC): 29 June 2016 12:44:01
Eccentricity: 0.0012834
inclination: 82.5102°
perigee height: 519 km
apogee height: 537 km
right ascension of ascending node: 194.6115°
argument of perigee: 81.2216°
revolutions per day: 15.12680373
mean anomaly at epoch: 279.0467°
orbit number at epoch: 66402

The dashed part of the orbit path shows where the satellite is in the earth's shadow,  

DLR